ZHONGXING-9

Last updated on Sun Apr 12 2026 00:02:51 GMT+0000 (Coordinated Universal Time)

1 33051U 08028A 26100.82597494 -.00000247 00000+0 00000+0 0 9999 2 33051 0.5952 86.1584 0007210 273.7913 228.8275 1.00269998 65367
UTC large
Height (km)
Speed (km/s)
/
Latitude / Longitude
Inclination (degrees)
Orbital Period (minutes)
Azimuth
Elevation
Range (km)
Doppler Factor

Next 0 passes for location: London (51.5072 / 0.1276)

Sorry there are no passes over London.
ZHONGXING-9